International Skating Union - Official Site

ISU European Allround Speed Skating Championships 2017
January 6-8, 2017

Draw | Lap Times | Index | Classification

Referee: Ekaterina  PILSHCHIKOVA  (RUS)
Starter: Tom Vidar  JOHANSSON  (NOR)
StartTime: EndTime: Air Temp: Ice Temp: Humidity:
13:41 14:18 15.5℃ -7.5℃ 36%
Result 5000m Ladies
Rankings as of Jan 7 2017 2:35PM
Rank: No.: Name: Nation: Time: Behind: Points:
1 54 Martina  Sáblíková CZE CZE 6:57.47200m - 20.77 - (20.7)
600m - 53.35 - (32.5)
1000m - 1:26.52 - (33.1)
1400m - 1:59.72 - (33.2)
1800m - 2:33.06 - (33.3)
2200m - 3:06.10 - (33.0)
2600m - 3:39.70 - (33.6)
3000m - 4:12.54 - (32.8)
3400m - 4:45.55 - (33.0)
3800m - 5:18.49 - (32.9)
4200m - 5:51.46 - (32.9)
4600m - 6:24.38 - (32.9)
5000m - 6:57.47 - (33.0)
41.747
2 63 Ireen  Wüst NED NED 7:03.54200m - 20.30 - (20.3)
600m - 52.96 - (32.6)
1000m - 1:26.25 - (33.2)
1400m - 1:59.69 - (33.4)
1800m - 2:32.78 - (33.0)
2200m - 3:06.62 - (33.8)
2600m - 3:40.01 - (33.3)
3000m - 4:13.96 - (33.9)
3400m - 4:47.59 - (33.6)
3800m - 5:21.34 - (33.7)
4200m - 5:55.32 - (33.9)
4600m - 6:29.63 - (34.3)
5000m - 7:03.54 - (33.9)
6.07 42.354
3 62 Yvonne  Nauta NED NED 7:05.41200m - 20.96 - (20.9)
600m - 54.54 - (33.5)
1000m - 1:28.12 - (33.5)
1400m - 2:01.48 - (33.3)
1800m - 2:34.73 - (33.2)
2200m - 3:07.86 - (33.1)
2600m - 3:41.29 - (33.4)
3000m - 4:14.81 - (33.5)
3400m - 4:48.59 - (33.7)
3800m - 5:22.44 - (33.8)
4200m - 5:56.41 - (33.9)
4600m - 6:30.62 - (34.2)
5000m - 7:05.41 - (34.7)
7.94 42.541
4 61 Antoinette  de Jong NED NED 7:07.33200m - 20.75 - (20.7)
600m - 53.54 - (32.7)
1000m - 1:26.48 - (32.9)
1400m - 1:59.39 - (32.9)
1800m - 2:32.68 - (33.2)
2200m - 3:06.21 - (33.5)
2600m - 3:39.98 - (33.7)
3000m - 4:14.06 - (34.0)
3400m - 4:48.35 - (34.2)
3800m - 5:22.99 - (34.6)
4200m - 5:57.81 - (34.8)
4600m - 6:32.51 - (34.7)
5000m - 7:07.33 - (34.8)
9.86 42.733
5 71 Olga  Graf RUS RUS 7:11.98200m - 21.87 - (21.8)
600m - 55.82 - (33.9)
1000m - 1:30.07 - (34.2)
1400m - 2:04.11 - (34.0)
1800m - 2:38.15 - (34.0)
2200m - 3:12.28 - (34.1)
2600m - 3:46.19 - (33.9)
3000m - 4:20.30 - (34.1)
3400m - 4:54.46 - (34.1)
3800m - 5:28.91 - (34.4)
4200m - 6:03.29 - (34.3)
4600m - 6:37.76 - (34.4)
5000m - 7:11.98 - (34.2)
14.51 43.198
6 58 Claudia  Pechstein GER GER 7:12.18200m - 21.63 - (21.6)
600m - 55.50 - (33.8)
1000m - 1:29.51 - (34.0)
1400m - 2:03.27 - (33.7)
1800m - 2:37.05 - (33.7)
2200m - 3:10.80 - (33.7)
2600m - 3:44.79 - (33.9)
3000m - 4:18.94 - (34.1)
3400m - 4:53.25 - (34.3)
3800m - 5:27.90 - (34.6)
4200m - 6:02.64 - (34.7)
4600m - 6:37.27 - (34.6)
5000m - 7:12.18 - (34.9)
14.71 43.218
7 68 Natalia  Czerwonka POL POL 7:23.87200m - 21.04 - (21.0)
600m - 54.70 - (33.6)
1000m - 1:29.56 - (34.8)
1400m - 2:04.70 - (35.1)
1800m - 2:39.23 - (34.5)
2200m - 3:14.48 - (35.2)
2600m - 3:48.76 - (34.2)
3000m - 4:23.95 - (35.1)
3400m - 4:59.07 - (35.1)
3800m - 5:35.18 - (36.1)
4200m - 6:11.02 - (35.8)
4600m - 6:47.21 - (36.1)
5000m - 7:23.87 - (36.6)
26.40 44.387
8 66 Ida  Njåtun NOR NOR 7:27.47200m - 21.01 - (21.0)
600m - 55.21 - (34.2)
1000m - 1:30.14 - (34.9)
1400m - 2:04.62 - (34.4)
1800m - 2:39.41 - (34.7)
2200m - 3:14.06 - (34.6)
2600m - 3:48.86 - (34.7)
3000m - 4:23.83 - (34.9)
3400m - 4:59.56 - (35.7)
3800m - 5:35.64 - (36.0)
4200m - 6:12.62 - (36.9)
4600m - 6:49.84 - (37.2)
5000m - 7:27.47 - (37.6)
30.00 44.747